WZZ8663 LBSF-LICA

Flight info

Callsign WZZ8663
Flight time 1h 15m
Altitude 32000
Route NAPET3T/27 NAPET T214 DOBAR DCT PAPIZ DCT ABADI DCT ALIXI DCT CRN L869 CDC
Aircraft A321/M-SDE1E2E3FGIJ1J4RWXY/LB1

Departure

Time 2026-04-18 09:11
Airport Sofia Airport (LBSF)

Arrival

Time 2026-04-18 10:26
Airport Lamezia Terme Sant'Eufemia International Airport (LICA)
Time Latitude Longitude Altitude Speed Heading
2026-04-18 08:41 42.69124 23.40091 1750 ft 0 kts 198°
2026-04-18 09:03 42.69115 23.40087 1752 ft 3 kts 197°
2026-04-18 09:04 42.69085 23.40088 1752 ft 5 kts 156°
2026-04-18 09:04 42.69059 23.40141 1751 ft 8 kts 110°
2026-04-18 09:04 42.69038 23.40225 1752 ft 10 kts 106°
2026-04-18 09:04 42.69070 23.40309 1751 ft 12 kts 21°
2026-04-18 09:05 42.69160 23.40347 1752 ft 14 kts 15°
2026-04-18 09:05 42.69264 23.40388 1752 ft 16 kts 16°
2026-04-18 09:05 42.69378 23.40434 1752 ft 17 kts 16°
2026-04-18 09:05 42.69488 23.40481 1751 ft 14 kts 20°
2026-04-18 09:06 42.69524 23.40591 1751 ft 14 kts 93°
2026-04-18 09:06 42.69516 23.40732 1751 ft 14 kts 94°
2026-04-18 09:06 42.69506 23.40867 1752 ft 13 kts 94°
2026-04-18 09:06 42.69499 23.40993 1751 ft 13 kts 94°
2026-04-18 09:07 42.69492 23.41112 1751 ft 12 kts 94°
2026-04-18 09:07 42.69484 23.41252 1751 ft 18 kts 95°
2026-04-18 09:07 42.69472 23.41456 1752 ft 21 kts 95°
2026-04-18 09:07 42.69459 23.41651 1751 ft 19 kts 95°
2026-04-18 09:08 42.69449 23.41841 1751 ft 22 kts 94°
2026-04-18 09:08 42.69436 23.42061 1752 ft 22 kts 94°
2026-04-18 09:08 42.69424 23.42267 1751 ft 20 kts 94°
2026-04-18 09:08 42.69413 23.42454 1751 ft 19 kts 95°
2026-04-18 09:09 42.69402 23.42628 1751 ft 17 kts 95°
2026-04-18 09:09 42.69432 23.42749 1751 ft 13 kts 22°
2026-04-18 09:09 42.69505 23.42697 1751 ft 12 kts 306°
2026-04-18 09:09 42.69552 23.42599 1751 ft 13 kts 299°
2026-04-18 09:10 42.69593 23.42472 1751 ft 15 kts 286°
2026-04-18 09:10 42.69612 23.42276 1752 ft 40 kts 276°
2026-04-18 09:10 42.69654 23.41569 1752 ft 106 kts 276°
2026-04-18 09:10 42.69724 23.40305 1754 ft 160 kts 273°
2026-04-18 09:11 42.69825 23.38760 2248 ft 164 kts 275°
2026-04-18 09:11 42.70057 23.37290 2832 ft 160 kts 304°
2026-04-18 09:11 42.70801 23.36222 3388 ft 155 kts 324°
2026-04-18 09:11 42.71601 23.35206 3708 ft 163 kts 317°
2026-04-18 09:12 42.72391 23.34026 3944 ft 174 kts 314°
2026-04-18 09:12 42.73198 23.32739 4196 ft 186 kts 313°
2026-04-18 09:12 42.74050 23.31324 4459 ft 199 kts 312°
2026-04-18 09:12 42.74954 23.29791 4734 ft 213 kts 311°
2026-04-18 09:13 42.75903 23.28160 4978 ft 230 kts 309°
2026-04-18 09:13 42.76636 23.26119 5192 ft 253 kts 285°
2026-04-18 09:13 42.76795 23.23676 5557 ft 269 kts 273°
2026-04-18 09:13 42.76803 23.21091 6154 ft 276 kts 272°
2026-04-18 09:14 42.76805 23.18460 6670 ft 278 kts 273°
2026-04-18 09:14 42.76821 23.15826 6832 ft 278 kts 273°
2026-04-18 09:14 42.76849 23.13206 6887 ft 279 kts 273°
2026-04-18 09:14 42.76577 23.10560 7122 ft 292 kts 248°
2026-04-18 09:15 42.75363 23.08395 7914 ft 294 kts 218°
2026-04-18 09:15 42.73619 23.06980 8710 ft 293 kts 208°
2026-04-18 09:15 42.71809 23.05688 9336 ft 298 kts 208°
2026-04-18 09:15 42.69952 23.04365 9982 ft 302 kts 208°
2026-04-18 09:16 42.68102 23.03036 10484 ft 311 kts 208°
2026-04-18 09:16 42.66133 23.01609 10774 ft 327 kts 209°
2026-04-18 09:16 42.64078 23.00111 11145 ft 339 kts 209°
2026-04-18 09:16 42.61995 22.98590 11722 ft 344 kts 209°
2026-04-18 09:17 42.59885 22.97049 12371 ft 346 kts 209°
2026-04-18 09:17 42.57762 22.95498 12984 ft 348 kts 209°
2026-04-18 09:17 42.55616 22.93930 13597 ft 351 kts 209°
2026-04-18 09:17 42.53483 22.92371 14174 ft 353 kts 209°
2026-04-18 09:18 42.51297 22.90774 14729 ft 357 kts 209°
2026-04-18 09:18 42.49104 22.89173 15255 ft 361 kts 209°
2026-04-18 09:18 42.46894 22.87562 15781 ft 365 kts 209°
2026-04-18 09:18 42.44651 22.85929 16307 ft 368 kts 209°
2026-04-18 09:19 42.42376 22.84274 16818 ft 372 kts 210°
2026-04-18 09:19 42.40086 22.82610 17313 ft 376 kts 210°
2026-04-18 09:19 42.37777 22.80931 17802 ft 379 kts 210°
2026-04-18 09:19 42.35421 22.79220 18283 ft 383 kts 210°
2026-04-18 09:20 42.33073 22.77516 18778 ft 386 kts 210°
2026-04-18 09:20 42.30693 22.75790 19283 ft 389 kts 210°
2026-04-18 09:20 42.28309 22.74063 19783 ft 392 kts 210°
2026-04-18 09:20 42.25908 22.72325 20263 ft 394 kts 210°
2026-04-18 09:21 42.23491 22.70576 20737 ft 397 kts 210°
2026-04-18 09:21 42.21073 22.68827 21208 ft 399 kts 210°
2026-04-18 09:21 42.18604 22.67044 21662 ft 402 kts 210°
2026-04-18 09:21 42.16133 22.65263 22100 ft 405 kts 210°
2026-04-18 09:22 42.13650 22.63475 22524 ft 407 kts 210°
2026-04-18 09:22 42.11208 22.61523 22919 ft 409 kts 218°
2026-04-18 09:22 42.09091 22.59034 23331 ft 408 kts 230°
2026-04-18 09:22 42.07347 22.56020 23753 ft 407 kts 239°
2026-04-18 09:23 42.05807 22.52806 24149 ft 409 kts 241°
2026-04-18 09:23 42.04292 22.49550 24513 ft 412 kts 241°
2026-04-18 09:23 42.02759 22.46298 24907 ft 415 kts 240°
2026-04-18 09:23 42.01215 22.43072 25298 ft 416 kts 240°
2026-04-18 09:24 41.99644 22.39806 25674 ft 418 kts 241°
2026-04-18 09:24 41.98170 22.36451 26029 ft 419 kts 244°
2026-04-18 09:24 41.96833 22.32933 26378 ft 420 kts 247°
2026-04-18 09:24 41.95623 22.29353 26732 ft 421 kts 248°
2026-04-18 09:25 41.94432 22.25783 27075 ft 423 kts 249°
2026-04-18 09:25 41.93189 22.22058 27434 ft 424 kts 249°
2026-04-18 09:25 41.91947 22.18351 27767 ft 426 kts 249°
2026-04-18 09:25 41.90727 22.14722 28075 ft 428 kts 248°
2026-04-18 09:26 41.89488 22.11050 28374 ft 430 kts 248°
2026-04-18 09:26 41.88244 22.07407 28668 ft 431 kts 248°
2026-04-18 09:26 41.86979 22.03717 29024 ft 431 kts 248°
2026-04-18 09:26 41.85733 22.00074 29423 ft 430 kts 249°
2026-04-18 09:27 41.84493 21.96439 29831 ft 428 kts 249°
2026-04-18 09:27 41.83257 21.92812 30205 ft 427 kts 249°
2026-04-18 09:27 41.82031 21.89216 30543 ft 427 kts 249°
2026-04-18 09:27 41.80785 21.85562 30806 ft 428 kts 249°
2026-04-18 09:28 41.79560 21.81974 31048 ft 429 kts 249°
2026-04-18 09:28 41.78311 21.78319 31299 ft 429 kts 249°
2026-04-18 09:28 41.77072 21.74698 31527 ft 429 kts 249°
2026-04-18 09:28 41.75831 21.71070 31756 ft 430 kts 249°
2026-04-18 09:29 41.74590 21.67409 31977 ft 430 kts 248°
2026-04-18 09:29 41.73351 21.63793 31992 ft 432 kts 248°
2026-04-18 09:29 41.70808 21.56474 32006 ft 432 kts 249°
2026-04-18 09:30 41.68297 21.49237 32004 ft 432 kts 249°
2026-04-18 09:30 41.65776 21.41956 32012 ft 432 kts 249°
2026-04-18 09:31 41.63259 21.34702 32004 ft 431 kts 248°
2026-04-18 09:31 41.60725 21.27394 32007 ft 431 kts 249°
2026-04-18 09:32 41.58196 21.20124 32016 ft 431 kts 249°
2026-04-18 09:32 41.55674 21.12904 32011 ft 431 kts 249°
2026-04-18 09:33 41.53146 21.05688 32015 ft 432 kts 249°
2026-04-18 09:33 41.50599 20.98439 32013 ft 431 kts 249°
2026-04-18 09:34 41.48050 20.91209 32000 ft 431 kts 249°
2026-04-18 09:34 41.45503 20.83996 32013 ft 431 kts 249°
2026-04-18 09:35 41.42959 20.76804 32001 ft 430 kts 249°
2026-04-18 09:35 41.40404 20.69599 32008 ft 430 kts 249°
2026-04-18 09:36 41.37868 20.62457 32014 ft 429 kts 249°
2026-04-18 09:36 41.35315 20.55295 32010 ft 429 kts 250°
2026-04-18 09:37 41.32861 20.48092 32003 ft 427 kts 253°
2026-04-18 09:37 41.30793 20.40765 31993 ft 426 kts 255°
2026-04-18 09:38 41.28739 20.33377 31985 ft 425 kts 254°
2026-04-18 09:38 41.26691 20.26024 31973 ft 424 kts 255°
2026-04-18 09:39 41.24628 20.18638 31963 ft 425 kts 255°
2026-04-18 09:39 41.22581 20.11352 31966 ft 425 kts 255°
2026-04-18 09:40 41.20512 20.04004 31954 ft 424 kts 255°
2026-04-18 09:40 41.18430 19.96642 31961 ft 425 kts 255°
2026-04-18 09:41 41.16359 19.89327 31949 ft 425 kts 255°
2026-04-18 09:41 41.14288 19.82046 31937 ft 424 kts 255°
2026-04-18 09:42 41.12205 19.74741 31935 ft 425 kts 255°
2026-04-18 09:42 41.10117 19.67441 31928 ft 423 kts 255°
2026-04-18 09:43 41.08026 19.60141 31918 ft 424 kts 255°
2026-04-18 09:43 41.05941 19.52879 31916 ft 424 kts 256°
2026-04-18 09:44 41.03846 19.45611 31909 ft 424 kts 255°
2026-04-18 09:44 41.01751 19.38364 31916 ft 424 kts 256°
2026-04-18 09:45 40.99630 19.31039 31913 ft 424 kts 255°
2026-04-18 09:45 40.97528 19.23793 31909 ft 425 kts 255°
2026-04-18 09:46 40.95405 19.16507 31908 ft 425 kts 255°
2026-04-18 09:46 40.93278 19.09233 31908 ft 425 kts 255°
2026-04-18 09:47 40.91141 19.01953 31912 ft 426 kts 255°
2026-04-18 09:47 40.88807 18.94731 31913 ft 430 kts 250°
2026-04-18 09:48 40.85896 18.87821 31910 ft 433 kts 246°
2026-04-18 09:48 40.82879 18.80973 31914 ft 432 kts 246°
2026-04-18 09:49 40.79878 18.74159 31918 ft 432 kts 245°
2026-04-18 09:49 40.76439 18.67621 31917 ft 438 kts 237°
2026-04-18 09:50 40.72272 18.61741 31920 ft 442 kts 228°
2026-04-18 09:50 40.67477 18.56680 31925 ft 447 kts 221°
2026-04-18 09:51 40.62433 18.51969 31928 ft 445 kts 220°
2026-04-18 09:51 40.57384 18.47264 31922 ft 445 kts 221°
2026-04-18 09:52 40.52333 18.42545 31918 ft 445 kts 220°
2026-04-18 09:52 40.47305 18.37854 31922 ft 444 kts 220°
2026-04-18 09:53 40.42242 18.33131 31930 ft 444 kts 220°
2026-04-18 09:53 40.37221 18.28433 31940 ft 444 kts 220°
2026-04-18 09:54 40.32187 18.23743 31945 ft 445 kts 219°
2026-04-18 09:54 40.27110 18.19031 31954 ft 445 kts 219°
2026-04-18 09:55 40.22064 18.14362 31957 ft 445 kts 219°
2026-04-18 09:55 40.16989 18.09678 31957 ft 444 kts 219°
2026-04-18 09:56 40.11950 18.05031 31960 ft 444 kts 219°
2026-04-18 09:56 40.06908 18.00393 31958 ft 444 kts 219°
2026-04-18 09:57 40.01844 17.95742 31956 ft 445 kts 219°
2026-04-18 09:57 39.96811 17.91128 31959 ft 444 kts 219°
2026-04-18 09:58 39.91739 17.86489 31958 ft 444 kts 219°
2026-04-18 09:58 39.86668 17.81874 31955 ft 444 kts 219°
2026-04-18 09:59 39.81590 17.77269 31956 ft 444 kts 219°
2026-04-18 10:00 39.74000 17.70372 31918 ft 444 kts 219°
2026-04-18 10:00 39.71444 17.68049 31325 ft 446 kts 219°
2026-04-18 10:00 39.68903 17.65743 30696 ft 447 kts 219°
2026-04-18 10:00 39.66355 17.63430 29965 ft 448 kts 218°
2026-04-18 10:01 39.63799 17.61115 29227 ft 449 kts 218°
2026-04-18 10:01 39.61230 17.58793 28542 ft 449 kts 218°
2026-04-18 10:01 39.58701 17.56505 27847 ft 449 kts 218°
2026-04-18 10:01 39.56123 17.54175 27286 ft 445 kts 218°
2026-04-18 10:02 39.53596 17.51895 26809 ft 440 kts 218°
2026-04-18 10:02 39.51071 17.49616 26322 ft 435 kts 218°
2026-04-18 10:02 39.48597 17.47386 25852 ft 430 kts 218°
2026-04-18 10:02 39.46141 17.45180 25364 ft 426 kts 218°
2026-04-18 10:03 39.43644 17.43093 24808 ft 424 kts 215°
2026-04-18 10:03 39.41134 17.41101 24258 ft 421 kts 214°
2026-04-18 10:03 39.38648 17.39138 23717 ft 419 kts 214°
2026-04-18 10:03 39.36160 17.37172 23188 ft 416 kts 214°
2026-04-18 10:04 39.33701 17.35225 22692 ft 413 kts 214°
2026-04-18 10:04 39.31279 17.33303 22211 ft 409 kts 214°
2026-04-18 10:04 39.28823 17.31348 21714 ft 406 kts 214°
2026-04-18 10:04 39.26412 17.29433 21232 ft 403 kts 214°
2026-04-18 10:05 39.24000 17.27522 20779 ft 399 kts 213°
2026-04-18 10:05 39.21608 17.25629 20386 ft 399 kts 213°
2026-04-18 10:05 39.19179 17.23711 20056 ft 411 kts 213°
2026-04-18 10:05 39.16726 17.21780 19638 ft 412 kts 213°
2026-04-18 10:06 39.14271 17.19849 19036 ft 411 kts 213°
2026-04-18 10:06 39.11826 17.17927 18497 ft 409 kts 213°
2026-04-18 10:06 39.09423 17.16039 17987 ft 406 kts 213°
2026-04-18 10:06 39.07004 17.14138 17492 ft 402 kts 213°
2026-04-18 10:07 39.04634 17.12278 17000 ft 400 kts 213°
2026-04-18 10:07 39.02255 17.10412 16486 ft 397 kts 213°
2026-04-18 10:07 39.00082 17.08221 15924 ft 392 kts 229°
2026-04-18 10:07 38.98529 17.05362 15426 ft 384 kts 245°
2026-04-18 10:08 38.97442 17.02235 14979 ft 379 kts 250°
2026-04-18 10:08 38.96451 16.99150 14502 ft 377 kts 250°
2026-04-18 10:08 38.95447 16.96026 14037 ft 374 kts 250°
2026-04-18 10:08 38.94450 16.92964 13579 ft 372 kts 249°
2026-04-18 10:09 38.93442 16.89908 13126 ft 370 kts 249°
2026-04-18 10:09 38.92434 16.86877 12684 ft 367 kts 249°
2026-04-18 10:09 38.91435 16.83883 12238 ft 364 kts 249°
2026-04-18 10:09 38.90435 16.80899 11806 ft 361 kts 249°
2026-04-18 10:10 38.89442 16.77945 11362 ft 359 kts 249°
2026-04-18 10:10 38.88447 16.75023 10943 ft 356 kts 249°
2026-04-18 10:10 38.87464 16.72129 10500 ft 353 kts 249°
2026-04-18 10:10 38.86490 16.69249 10077 ft 350 kts 249°
2026-04-18 10:11 38.85664 16.66334 9618 ft 344 kts 262°
2026-04-18 10:11 38.85713 16.63352 9289 ft 331 kts 282°
2026-04-18 10:11 38.86112 16.60487 9014 ft 325 kts 283°
2026-04-18 10:11 38.86509 16.57628 8595 ft 323 kts 283°
2026-04-18 10:12 38.86927 16.54846 8149 ft 311 kts 283°
2026-04-18 10:12 38.87303 16.52159 7721 ft 298 kts 282°
2026-04-18 10:12 38.87612 16.49620 7306 ft 286 kts 282°
2026-04-18 10:12 38.87894 16.47129 7001 ft 270 kts 281°
2026-04-18 10:13 38.88157 16.44795 6880 ft 260 kts 282°
2026-04-18 10:13 38.88419 16.42510 6787 ft 260 kts 281°
2026-04-18 10:13 38.88684 16.40212 6578 ft 261 kts 282°
2026-04-18 10:13 38.88950 16.37900 6088 ft 258 kts 282°
2026-04-18 10:14 38.89167 16.35639 5460 ft 258 kts 273°
2026-04-18 10:14 38.88741 16.33408 4799 ft 259 kts 242°
2026-04-18 10:14 38.87552 16.31713 4167 ft 263 kts 213°
2026-04-18 10:14 38.85834 16.30932 3540 ft 267 kts 182°
2026-04-18 10:15 38.84047 16.31310 3132 ft 254 kts 150°
2026-04-18 10:15 38.82737 16.32728 3181 ft 244 kts 119°
2026-04-18 10:15 38.82218 16.34691 3475 ft 224 kts 86°
2026-04-18 10:15 38.82558 16.36477 3852 ft 193 kts 58°
2026-04-18 10:16 38.83145 16.37916 3955 ft 177 kts 67°
2026-04-18 10:16 38.83489 16.39441 3965 ft 176 kts 75°
2026-04-18 10:16 38.83432 16.41019 3939 ft 182 kts 104°
2026-04-18 10:16 38.82968 16.42538 3971 ft 185 kts 109°
2026-04-18 10:17 38.82495 16.44065 3970 ft 184 kts 105°
2026-04-18 10:17 38.82060 16.45626 3954 ft 185 kts 104°
2026-04-18 10:17 38.81635 16.47184 3710 ft 185 kts 104°
2026-04-18 10:17 38.81204 16.48744 3541 ft 184 kts 104°
2026-04-18 10:18 38.80774 16.50279 3368 ft 183 kts 104°
2026-04-18 10:18 38.80336 16.51825 3192 ft 183 kts 104°
2026-04-18 10:18 38.79968 16.53373 2994 ft 180 kts 86°
2026-04-18 10:18 38.80267 16.54838 2816 ft 166 kts 43°
2026-04-18 10:19 38.81215 16.55554 2688 ft 159 kts
2026-04-18 10:19 38.82231 16.55167 2642 ft 151 kts 325°
2026-04-18 10:19 38.82960 16.54228 2513 ft 144 kts 315°
2026-04-18 10:19 38.83590 16.53249 2579 ft 142 kts 313°
2026-04-18 10:20 38.84227 16.52248 2746 ft 144 kts 313°
2026-04-18 10:20 38.84862 16.51251 2869 ft 146 kts 313°
2026-04-18 10:20 38.85511 16.50234 2942 ft 148 kts 313°
2026-04-18 10:20 38.86161 16.49222 2947 ft 147 kts 313°
2026-04-18 10:21 38.86814 16.48210 2953 ft 146 kts 313°
2026-04-18 10:21 38.87414 16.47131 2949 ft 148 kts 302°
2026-04-18 10:21 38.87793 16.45888 2985 ft 150 kts 292°
2026-04-18 10:21 38.88057 16.44570 2868 ft 154 kts 288°
2026-04-18 10:22 38.88281 16.43222 2666 ft 153 kts 284°
2026-04-18 10:22 38.88473 16.41873 2470 ft 152 kts 282°
2026-04-18 10:22 38.88640 16.40552 2273 ft 149 kts 281°
2026-04-18 10:22 38.88796 16.39229 2079 ft 146 kts 280°
2026-04-18 10:23 38.88945 16.37939 1889 ft 143 kts 281°
2026-04-18 10:23 38.89093 16.36684 1707 ft 141 kts 277°
2026-04-18 10:23 38.89236 16.35456 1511 ft 140 kts 276°
2026-04-18 10:23 38.89383 16.34211 1327 ft 139 kts 275°
2026-04-18 10:24 38.89522 16.32991 1147 ft 139 kts 275°
2026-04-18 10:24 38.89663 16.31763 969 ft 138 kts 276°
2026-04-18 10:24 38.89806 16.30536 793 ft 138 kts 276°
2026-04-18 10:24 38.89948 16.29325 611 ft 138 kts 276°
2026-04-18 10:25 38.90090 16.28122 432 ft 137 kts 276°
2026-04-18 10:25 38.90228 16.26913 253 ft 137 kts 276°
2026-04-18 10:25 38.90375 16.25704 93 ft 136 kts 274°
2026-04-18 10:25 38.90514 16.24556 60 ft 116 kts 276°
2026-04-18 10:26 38.90586 16.23799 59 ft 53 kts 285°
2026-04-18 10:26 38.90739 16.23501 59 ft 23 kts 333°
2026-04-18 10:26 38.90839 16.23546 59 ft 16 kts 81°
2026-04-18 10:26 38.90828 16.23697 59 ft 17 kts 102°
2026-04-18 10:27 38.90807 16.23852 59 ft 17 kts 99°
2026-04-18 10:27 38.90787 16.24011 59 ft 18 kts 99°
2026-04-18 10:27 38.90789 16.24170 59 ft 18 kts 63°
2026-04-18 10:27 38.90826 16.24319 59 ft 17 kts 99°
2026-04-18 10:28 38.90807 16.24477 59 ft 16 kts 98°
2026-04-18 10:28 38.90794 16.24586 59 ft 12 kts 98°
2026-04-18 10:28 38.90779 16.24702 59 ft 13 kts 102°
2026-04-18 10:28 38.90766 16.24825 59 ft 14 kts 97°
2026-04-18 10:29 38.90793 16.24887 59 ft 5 kts 15°
2026-04-18 10:29 38.90820 16.24905 59 ft 0 kts 42°
2026-04-18 10:29 38.90822 16.24908 59 ft 1 kts 45°